Theta_e
308 309 309 308 304 303 303 304 305 306 306 306 306 310 312 311 310 314 319 318 318 318 317 318 319 322 319 318 319 316 321 320 321 320 320 318 319 317 316 317 315 317 326 336 342
308 309 310 310 309 306 305 305 305 307 307 308 307 307 312 312 314 317 319 320 320 318 315 319 322 319 317 319 320 319 317 318 318 317 320 320 320 318 317 316 316 318 328 339 342
308 308 309 310 311 310 306 306 306 308 308 308 308 307 311 312 316 319 320 320 319 318 320 321 320 319 320 319 320 318 320 317 316 318 320 322 320 317 318 318 315 317 316 333 340
311 309 309 310 311 311 309 306 307 308 307 308 308 308 311 317 317 316 316 316 317 320 320 322 318 320 320 321 319 323 320 320 320 321 322 322 319 318 316 318 317 315 315 317 335
316 313 311 310 310 312 311 308 308 308 308 308 308 309 311 310 312 317 320 316 314 320 319 321 319 317 319 318 318 321 320 319 319 317 317 316 316 316 315 314 313 313 313 313 313
319 316 313 311 311 312 312 309 309 308 308 309 308 312 316 313 315 319 319 317 314 317 319 319 318 315 316 316 318 317 316 315 315 315 315 316 316 315 315 313 313 313 313 312 312
321 318 316 313 311 313 313 311 308 308 308 309 309 314 317 311 315 318 319 318 319 316 320 321 319 316 316 317 316 317 317 315 315 315 316 314 315 315 314 312 312 311 310 310 310
320 320 318 316 314 314 314 310 308 308 309 309 313 317 310 315 317 314 316 315 315 320 320 322 319 318 317 316 315 317 314 316 314 315 314 316 316 315 313 313 312 311 309 309 309
321 321 320 319 316 313 310 308 307 310 316 313 320 320 316 318 315 315 314 316 316 320 321 321 318 317 316 317 317 315 317 315 315 315 315 315 315 315 314 312 312 311 310 310 309
321 321 320 319 317 310 307 309 305 307 308 317 320 318 316 312 309 310 311 311 316 319 320 317 314 316 314 316 317 316 317 315 316 315 315 316 316 314 313 312 312 310 310 309 309
320 320 320 319 318 305 307 307 302 305 303 306 305 313 308 308 309 311 311 314 316 318 322 317 318 318 318 316 315 315 315 315 314 314 316 316 317 315 313 311 311 312 311 310 309
320 319 319 319 318 306 306 303 303 302 304 306 304 304 306 306 310 312 310 315 316 316 318 320 320 317 316 315 316 317 318 318 316 316 315 315 317 315 313 312 312 311 310 310 311
319 318 319 319 314 307 305 304 305 307 306 306 307 308 309 308 314 314 312 314 315 315 317 317 317 319 319 320 320 319 319 318 319 317 315 315 315 315 313 312 312 311 312 314 315
318 318 319 318 308 306 305 305 305 307 309 311 311 314 315 314 316 308 307 313 314 314 313 315 314 316 316 318 317 318 316 318 319 318 319 314 318 315 313 313 315 314 313 313 316
313 316 319 317 314 305 305 304 304 306 315 314 315 314 308 312 306 310 306 312 315 314 312 314 311 311 314 311 313 313 314 315 317 316 315 316 316 314 311 314 316 313 313 311 311
312 315 318 317 311 306 303 302 306 312 315 314 307 306 306 304 303 303 305 304 306 308 308 307 306 304 305 306 307 307 310 315 315 315 317 315 317 316 313 316 314 311 311 310 311
311 315 317 317 310 310 309 302 313 315 310 310 308 305 303 303 303 305 304 303 306 307 306 306 304 301 300 303 305 308 312 314 314 317 316 317 316 315 314 313 312 309 308 309 310
312 317 316 317 314 308 303 303 318 315 312 308 304 304 304 301 301 301 304 304 301 304 304 304 305 299 299 300 301 303 307 315 316 317 316 311 316 317 312 310 305 303 304 305 308
315 315 315 314 316 307 302 308 313 312 309 306 305 304 302 299 300 300 303 304 301 300 302 303 304 300 299 299 300 300 299 299 302 307 307 307 309 315 308 305 301 299 303 304 306
315 312 310 312 312 303 305 314 309 306 305 303 308 307 303 300 300 299 299 301 300 299 299 299 300 299 300 300 299 297 298 301 307 304 313 309 310 309 304 302 299 298 299 303 305
314 311 305 306 303 302 309 307 308 307 305 305 308 310 304 302 297 298 301 299 300 299 299 298 297 298 298 298 297 297 300 302 301 304 308 307 299 303 300 299 298 298 298 299 303
309 314 302 302 304 304 306 306 308 305 300 301 299 301 304 302 300 298 298 301 299 299 299 298 299 298 298 297 297 299 301 301 301 301 301 299 300 304 298 297 297 297 298 298 300
311 306 300 301 307 301 303 304 305 308 305 302 303 303 299 302 306 302 301 302 300 300 299 298 297 297 296 296 297 299 299 299 299 297 296 298 297 298 297 296 296 296 296 297 298
305 308 302 300 302 305 307 307 307 304 306 303 304 304 304 304 304 304 302 302 301 300 301 298 296 297 296 297 295 296 299 297 295 293 292 297 296 296 296 295 295 295 296 296 297
304 306 302 303 302 303 306 306 309 309 305 303 304 305 305 305 303 304 302 300 299 300 298 299 300 298 298 297 297 298 298 298 294 294 294 295 295 295 295 295 295 296 296 296 297
304 303 299 300 299 301 303 303 304 305 306 303 305 302 304 301 303 303 300 298 297 294 294 294 296 297 296 294 296 297 297 296 296 296 294 295 295 295 295 295 295 295 295 296 296
298 299 303 304 302 302 301 302 304 304 303 302 301 303 302 300 299 297 299 295 294 294 293 294 295 294 292 294 296 296 296 295 295 294 295 296 298 301 302 302 302 302 300 296 296
Wind_Speed
19 20 21 22 22 22 23 24 24 23 22 22 23 23 21 20 20 9 4 1 2 7 4 8 5 3 2 2 3 3 4 2 4 5 4 3 7 4 3 2 5 3 3 3 3
18 20 21 23 24 25 26 27 27 25 24 23 23 22 20 19 15 6 0 3 3 7 5 6 3 3 3 1 2 4 3 6 4 3 1 4 2 6 6 5 4 4 3 8 12
20 21 22 24 26 27 27 28 27 26 25 25 24 21 18 14 4 1 2 2 2 7 3 3 5 2 1 2 2 3 5 3 4 4 3 4 5 3 4 6 6 5 6 2 1
21 22 23 24 27 28 29 29 28 27 31 26 21 18 14 5 2 2 1 0 3 8 4 4 4 3 1 3 2 1 6 4 5 1 4 4 3 3 8 11 3 8 4 5 6
22 23 25 26 28 29 30 31 31 30 32 24 16 10 4 3 6 1 1 2 4 9 7 4 4 3 1 2 1 3 4 5 7 8 7 3 8 6 7 13 9 9 8 10 9
23 24 26 27 29 31 32 33 32 35 26 20 9 3 1 2 2 3 2 2 3 8 8 6 5 6 4 3 3 1 4 6 7 7 5 6 7 4 10 6 10 7 10 10 9
24 25 26 28 30 32 34 33 33 31 20 13 2 1 0 9 2 3 3 1 2 6 5 8 5 3 2 3 1 2 5 8 7 4 4 4 4 6 5 6 9 9 9 8 10
23 24 26 27 29 33 36 33 36 15 12 5 2 1 5 1 3 3 3 3 4 4 3 4 6 2 3 1 5 3 3 3 5 3 4 2 7 7 5 6 9 10 8 7 7
22 22 24 26 30 34 34 35 15 5 6 3 2 2 7 2 2 1 1 1 1 4 5 2 3 3 3 4 4 3 5 3 7 1 3 3 6 6 16 6 10 10 11 8 9
20 21 24 26 29 33 31 27 6 4 4 2 1 2 3 1 4 5 5 3 2 3 2 3 3 3 3 4 6 5 4 4 4 4 10 13 16 7 9 9 11 10 11 11 10
18 20 22 24 27 25 28 7 8 4 8 4 4 5 4 8 9 5 5 2 3 4 4 1 2 6 11 8 3 2 4 7 4 8 5 9 15 11 9 9 10 13 11 9 10
17 18 19 22 25 19 21 7 3 5 9 4 6 5 12 5 4 3 4 4 3 5 2 3 7 9 5 3 4 4 4 6 6 8 4 8 16 11 10 8 6 7 11 15 16
13 16 18 19 17 12 11 9 8 1 4 6 4 3 1 7 1 4 2 2 3 2 3 5 4 6 4 2 3 3 5 5 11 3 3 5 8 4 4 4 6 8 10 13 17
12 15 17 18 3 13 3 13 10 0 4 6 2 2 3 1 3 3 5 1 2 4 3 5 5 3 3 5 6 3 8 11 7 2 2 2 6 6 3 5 10 15 16 17 19
14 10 12 12 12 5 9 15 11 1 5 2 1 0 2 3 2 3 5 2 2 2 4 5 2 3 4 4 5 8 1 3 3 4 1 3 1 7 4 5 9 15 16 17 18
13 9 9 8 7 5 11 15 2 5 7 3 3 4 3 5 4 5 5 7 2 1 1 5 1 3 4 5 3 5 3 3 3 1 3 5 7 7 3 4 6 11 14 17 19
12 8 7 6 3 9 15 5 4 4 6 3 3 4 2 2 2 3 4 4 1 1 2 3 1 4 4 4 2 6 3 2 3 1 6 1 2 6 5 6 5 10 13 14 17
10 8 9 11 6 7 5 4 4 3 6 2 2 2 2 3 2 2 2 2 1 2 2 4 4 4 6 2 1 3 1 3 6 3 4 5 5 2 6 3 3 8 12 16 19
7 10 8 11 11 3 2 2 7 6 2 5 4 1 2 2 1 1 2 4 3 3 7 5 4 2 2 3 2 1 3 1 0 3 1 4 3 3 4 10 12 14 15 17 17
8 6 6 9 9 6 2 6 5 4 3 2 5 7 6 4 3 3 6 4 4 3 3 3 2 1 1 1 6 4 0 2 2 1 4 5 5 4 7 9 12 15 14 13 14
7 1 4 9 13 2 4 7 5 6 4 6 7 11 8 6 6 4 3 1 4 1 2 3 1 2 1 6 2 3 1 4 2 1 3 4 5 5 5 6 10 12 13 12 11
5 2 4 21 3 3 4 6 4 4 2 5 3 5 8 8 7 7 9 3 6 5 5 1 3 2 2 4 5 2 2 3 3 3 2 1 8 4 6 11 12 13 14 13 12
1 2 2 3 4 3 3 5 5 4 6 3 5 2 4 4 4 3 3 3 4 3 5 6 2 3 2 1 3 2 1 3 3 2 5 3 7 4 17 23 27 24 15 14 13
3 1 2 2 2 2 2 5 4 3 3 1 3 6 3 2 2 2 2 1 2 0 4 4 1 3 4 3 4 2 3 3 5 2 4 10 22 16 19 20 20 22 16 12 16
2 1 1 3 4 7 1 3 2 2 2 1 3 9 6 6 5 6 7 2 0 3 3 3 3 3 2 1 3 6 6 6 7 6 4 15 15 21 19 18 19 19 18 16 18
1 2 2 2 1 3 7 4 6 5 5 4 9 9 12 7 9 7 8 7 6 3 3 2 3 1 2 3 3 8 10 9 12 12 9 18 23 18 15 13 16 16 14 13 16
2 1 1 3 3 2 4 7 8 4 8 7 11 6 14 12 1 2 10 2 5 7 4 4 5 3 2 3 5 5 6 5 2 4 6 7 14 12 20 21 21 19 12 12 16
Wind_Direction
11 10 8 5 3 2 358 355 351 348 346 344 345 341 339 335 330 314 264 99 121 157 143 150 133 103 64 88 92 131 59 246 254 166 256 334 21 315 276 280 344 295 224 247 230
6 4 2 0 360 357 356 353 349 347 343 339 340 337 340 334 326 284 137 143 124 162 139 143 133 101 40 35 25 91 121 226 222 227 293 320 357 327 339 338 313 317 315 360 190
0 357 356 355 355 353 351 349 345 342 339 334 331 330 336 332 316 340 103 161 197 188 96 113 128 91 69 34 204 158 197 217 265 247 304 307 309 248 286 289 214 258 282 50 164
355 353 352 352 351 348 346 344 340 337 333 325 323 323 331 338 357 25 32 356 180 175 146 103 63 77 120 231 175 260 259 237 283 247 323 270 273 257 205 257 249 242 270 309 193
350 350 349 348 346 343 341 339 336 335 328 318 315 318 341 352 250 194 43 82 154 171 164 134 123 127 267 250 329 207 269 280 270 291 271 280 255 232 248 264 246 245 262 255 252
346 346 345 345 343 342 339 337 335 331 324 316 296 284 177 256 195 181 164 92 150 162 165 155 180 188 194 220 174 252 257 271 287 275 250 238 274 143 277 270 275 259 239 242 244
343 343 343 344 342 340 338 336 333 329 326 324 227 180 92 242 178 205 230 256 233 188 153 188 171 141 152 301 282 277 307 319 273 272 262 157 279 224 278 319 295 300 286 280 257
338 339 341 343 341 339 336 335 329 330 342 13 78 66 247 356 274 237 264 284 236 216 200 189 182 132 155 191 11 341 57 328 293 349 296 109 275 303 335 339 306 313 299 285 262
327 332 337 341 341 339 336 333 333 345 0 26 31 82 273 315 132 203 249 264 198 198 206 103 124 140 78 89 359 348 257 246 314 337 327 52 285 286 310 312 301 301 293 295 291
321 331 336 340 343 342 342 334 343 352 335 316 276 355 293 285 332 312 267 251 197 118 93 97 64 135 74 117 232 216 241 244 251 299 318 312 288 276 283 299 289 291 293 296 293
324 331 336 341 344 349 353 359 10 355 23 272 297 280 281 315 295 301 307 117 76 62 183 341 159 204 208 200 136 149 214 251 256 270 284 260 279 277 278 282 285 284 310 310 300
319 328 330 340 344 1 27 57 69 278 307 281 248 261 278 282 311 285 154 148 135 208 80 359 257 234 220 184 205 202 265 270 272 251 177 270 281 279 268 264 269 352 336 339 327
315 320 325 334 339 4 41 39 346 285 282 309 227 231 272 142 274 311 80 94 114 142 222 179 262 59 155 252 251 248 230 231 250 308 264 291 289 194 292 282 32 21 355 349 336
310 310 323 337 12 350 44 351 345 289 9 281 7 2 95 174 46 10 14 97 35 227 196 233 271 254 196 221 193 262 237 251 261 45 241 69 290 304 306 336 20 6 355 350 342
325 322 313 345 323 350 329 336 334 329 337 52 34 152 99 88 255 21 21 34 196 236 115 254 337 304 241 229 161 229 293 257 250 199 232 182 132 272 341 301 5 350 351 349 348
314 305 297 320 325 325 337 331 332 37 256 349 20 355 45 15 15 320 25 35 103 169 316 248 10 45 299 317 338 324 292 29 29 158 278 196 178 278 324 9 342 343 354 350 348
306 276 268 275 289 319 325 354 25 168 357 347 348 20 74 316 14 52 39 23 218 289 242 329 48 338 12 327 28 18 78 312 296 212 240 130 180 246 76 39 345 336 347 356 358
294 250 238 232 269 337 337 44 184 239 263 322 6 336 259 358 346 24 88 176 72 138 168 198 261 11 329 72 294 15 30 178 235 215 268 326 241 150 99 88 360 352 356 9 4
228 218 220 271 242 251 74 211 219 208 284 344 314 271 304 296 238 321 247 213 192 189 187 170 251 247 51 40 329 326 77 120 106 303 47 243 277 169 32 25 16 10 4 1 2
186 166 214 221 201 158 126 242 240 234 184 148 205 192 225 219 233 189 187 169 188 206 189 196 258 287 307 167 31 62 203 132 81 259 247 290 273 224 28 13 3 1 5 354 351
171 171 186 175 148 110 210 220 253 237 181 205 230 250 240 210 204 215 208 259 155 134 114 133 129 323 322 35 32 345 36 52 84 57 210 288 265 125 74 19 350 337 341 341 346
159 250 162 152 130 179 210 206 225 193 151 261 256 249 237 207 212 215 212 201 162 159 147 139 126 54 324 306 223 156 118 99 138 201 203 190 270 120 335 323 323 322 317 322 324
189 44 229 204 209 241 275 267 238 227 215 226 254 239 11 189 251 268 167 76 92 121 179 169 157 134 321 352 55 96 121 115 111 83 209 159 258 318 335 321 315 313 311 309 311
128 204 339 338 354 305 253 250 237 53 293 162 337 4 12 277 326 250 238 213 187 327 165 100 132 196 186 136 126 165 210 141 130 137 220 238 277 291 284 283 288 293 301 293 298
34 258 82 207 234 234 220 329 302 282 31 120 239 219 203 208 193 224 205 140 318 265 101 132 169 240 271 210 179 210 226 208 193 213 205 279 271 276 282 284 281 286 286 282 283
21 125 57 251 88 242 196 221 240 221 193 222 235 200 196 200 206 178 181 175 205 128 120 26 137 112 287 324 262 277 258 240 235 251 250 259 272 278 281 287 282 272 272 269 271
71 46 227 164 162 205 216 205 215 174 219 232 221 208 218 212 285 47 202 183 165 138 135 132 138 122 279 342 313 275 224 179 189 197 209 266 290 328 308 301 290 280 270 260 263